Chillicothe, MO

7:36 PM CDT on October 17, 2017 (GMT -0500)
Chillicothe

Weather History for KCDJ - June, 2013

Change the Weather History Date:

Saturday, June 8, 2013

  Actual Average (KIRK) Record (KIRK)
Temperature  
Mean Temperature 66 °F -  
Max Temperature 80 °F 81 °F 97 °F (1934)
Min Temperature 52 °F 59 °F 46 °F (1924)
Growing Degree Days 16 (Base 50)    
Moisture  
Dew Point 53 °F    
Average Humidity 62    
Maximum Humidity 93    
Minimum Humidity 40    
Precipitation  
Precipitation 0.00 in - - ()
Sea Level Pressure  
Sea Level Pressure 29.88 in    
Wind  
Wind Speed 4 mph (SSE)    
Max Wind Speed 14 mph    
Max Gust Speed 21 mph    
Averages and records for this station are not official NWS values.
T = Trace of Precipitation, MM = Missing Value Source: NWS Daily Summary

Daily Weather History Graph

Daily Weather History Graph

Search for Another Location

Airport or City:

Trip Planner

Search our weather history database for the weather conditions in past years. The results will help you decide how hot, cold, wet, or windy it might be!

Date:

Astronomy

Jun. 08, 2013 Rise Set
Actual Time 5:45 AM CDT 8:41 PM CDT
Civil Twilight 5:13 AM CDT 9:13 PM CDT
Nautical Twilight 4:32 AM CDT 9:54 PM CDT
Astronomical Twilight 3:45 AM CDT 10:42 PM CDT
Moon 5:54 AM CDT (6/8) 8:44 PM CDT (6/8)
Length of Visible Light 16h 00m
Length of Day
14h 55m
New Moon, 0% of the Moon is Illuminated
Jun 8
New Moon
Jun 16
First Quarter
Jun 23
Full
Jun 29
Last Quarter
Jul 8
New

Hourly Weather History & Observations

Time (CDT) Temp. Dew Point Humidity Pressure Visibility Wind Dir Wind Speed Gust Speed Precip Events Conditions
12:52 AM 55.9 °F 53.1 °F 90% 29.96 in - Calm Calm - N/A   Unknown
1:52 AM 55.0 °F 52.0 °F 89% 29.94 in - Calm Calm - N/A   Unknown
2:52 AM 54.0 °F 51.1 °F 90% 29.92 in - Calm Calm - N/A   Unknown
3:52 AM 53.1 °F 50.0 °F 89% 29.92 in - Calm Calm - N/A   Unknown
4:52 AM 52.0 °F 50.0 °F 93% 29.92 in - Calm Calm - N/A   Unknown
5:52 AM 52.0 °F 48.9 °F 89% 29.93 in - Calm Calm - N/A   Unknown
6:52 AM 55.9 °F 54.0 °F 93% 29.93 in - Calm Calm - N/A   Unknown
7:52 AM 62.1 °F 55.9 °F 80% 29.94 in - SSE 5.8 mph - N/A   Unknown
8:52 AM 66.0 °F 55.9 °F 70% 29.94 in - South 5.8 mph - N/A   Unknown
9:52 AM 71.1 °F 54.0 °F 55% 29.93 in - South 9.2 mph - N/A   Unknown
10:52 AM 72.0 °F 55.0 °F 55% 29.92 in - South 10.4 mph - N/A   Unknown
11:52 AM 73.9 °F 55.0 °F 52% 29.91 in - SW 8.1 mph - N/A   Unknown
12:52 PM 75.9 °F 52.0 °F 43% 29.88 in - South 13.8 mph 18.4 mph N/A   Unknown
1:52 PM 77.0 °F 54.0 °F 45% 29.87 in - South 8.1 mph - N/A   Unknown
2:52 PM 78.1 °F 53.1 °F 42% 29.85 in - SSE 10.4 mph 18.4 mph N/A   Unknown
3:52 PM 79.0 °F 53.1 °F 40% 29.83 in - SSE 10.4 mph 18.4 mph N/A   Unknown
4:52 PM 78.1 °F 52.0 °F 40% 29.83 in - SSE 11.5 mph 20.7 mph N/A   Unknown
5:52 PM 78.1 °F 52.0 °F 40% 29.82 in - SSE 11.5 mph 18.4 mph N/A   Unknown
6:52 PM 78.1 °F 53.1 °F 42% 29.79 in - SSE 10.4 mph 20.7 mph N/A   Unknown
7:52 PM 75.9 °F 53.1 °F 45% 29.81 in - SSE 8.1 mph - N/A   Unknown
8:52 PM 73.9 °F 53.1 °F 48% 29.81 in - SSE 6.9 mph - N/A   Unknown
9:52 PM 73.0 °F 53.1 °F 49% 29.81 in - South 8.1 mph 17.3 mph N/A   Unknown
10:52 PM 72.0 °F 55.0 °F 55% 29.82 in - SSE 9.2 mph 16.1 mph N/A   Unknown
11:52 PM 72.0 °F 55.9 °F 57% 29.80 in - SSE 11.5 mph 18.4 mph N/A   Unknown